sat.trackr.live / text

‹ back to catalog

STARLINK-3765

NORAD 52295 · 2022-041AL

PAYLOAD ACTIVE UNKNOWN

§ Identity

Operator
Country
US
Launch date
2022-04-21
Launch site
AFETR
Launch vehicle
Mass (kg)
RCS (m²)

Purposes: comms

External: N2YO · Heavens-Above · Gunter

§ Orbital elements

Epoch: 2026-09-20T03:15:27.289728Z

Period
89.97 min
Inclination
53.1562°
Eccentricity
0.0000846
Mean motion
16.00462351 rev/d
Perigee alt
272.6 km
Apogee alt
273.7 km
Semi-major
6,651.3 km
B*
1.4540e-3
RAAN
280.9716°
Arg perigee
57.3416°
Mean anomaly
302.7697°
Rev number
24,420

§ Raw data

STARLINK-37651 52295U 22041AL  26263.13573252  .00778858  29344-3  14540-2 0  99932 52295  53.1562 280.9716 0000846  57.3416 302.7697 16.00462351244208

JSON: /api/v1/satellites/52295 · /tle

For live sub-satellite position, see the globe view (requires WebGL).

§ Visibility from observer

Set your observer location to see the next 7 days of passes ≥ 10°. The values pass through the URL so the page stays shareable.

No JS? Fill the form by hand. The geolocation button needs JavaScript.